Location: Unspecified
(40.9447°N, 78.9903°W)
Time: 13:10:21
(UTC-04:00)

Cosmos 1674 - Pass Details

Date: 02 August 2021
Orbit: 491 x 516 km, 82.5° (Epoch: 23 September)

Event Time Altitude Azimuth Distance (km) Brightness Sun altitude
Rises 03:51:26 0° 347° (NNW) 2,645 6.9 -21.9°
Reaches altitude 10° 03:53:37 10° 343° (NNW) 1,751 5.8 -21.7°
Enters shadow 03:56:54 51° 296° (WNW) 657 3.0 -21.3°
